Location: Newark
(49.8969°N, 3.3422°E)
Time: 00:04:10
(UTC+00:00)

A-11 Canister half - Visible Passes

Search period start: 20 January 2020 00:00
Search period end: 30 January 2020 00:00
Orbit: 1516 x 1683 km, 47.2° (Epoch: 19 January)

Date Brightness Start Highest point End Pass type
(mag) Time Alt. Az. Time Alt. Az. Time Alt. Az.
20 Jan 9.6 02:54:38 47° E 02:54:38 47° E 03:00:50 10° E visible
20 Jan 8.9 04:52:50 44° W 04:56:11 71° SSW 05:05:29 10° ESE visible
20 Jan 9.7 06:51:50 10° W 07:00:12 40° SW 07:08:45 10° SSE visible
21 Jan 9.9 02:32:58 36° E 02:32:58 36° E 02:37:56 10° E visible
21 Jan 8.9 04:31:09 56° WSW 04:33:18 72° SSW 04:42:35 10° ESE visible
21 Jan 9.6 06:29:21 12° W 06:37:23 42° SW 06:46:00 10° SSE visible
22 Jan 10.3 02:11:16 28° E 02:11:16 28° E 02:15:02 10° E visible
22 Jan 8.8 04:09:28 68° SW 04:10:25 73° S 04:19:42 10° ESE visible
22 Jan 9.5 06:07:40 16° W 06:14:32 44° SSW 06:23:12 10° SE visible
23 Jan 10.6 01:49:37 21° E 01:49:37 21° E 01:52:07 10° E visible
23 Jan 8.8 03:47:49 73° S 03:47:49 73° S 03:56:48 10° ESE visible
23 Jan 9.4 05:46:00 22° W 05:51:42 46° SSW 06:00:26 10° SE visible
24 Jan 10.9 01:27:58 15° E 01:27:58 15° E 01:29:13 10° E visible
24 Jan 9.1 03:26:10 63° SE 03:26:10 63° SE 03:33:54 10° ESE visible
24 Jan 9.3 05:24:22 29° W 05:28:51 47° SSW 05:37:39 10° SE visible
25 Jan 9.4 03:04:34 50° ESE 03:04:34 50° ESE 03:11:01 10° ESE visible
25 Jan 9.2 05:02:45 36° WSW 05:06:01 49° SSW 05:14:51 10° SE visible
26 Jan 9.8 02:42:59 38° ESE 02:42:59 38° ESE 02:48:07 10° ESE visible
26 Jan 9.1 04:41:11 45° WSW 04:43:10 51° SSW 04:52:02 10° SE visible
26 Jan 10.3 06:40:14 10° W 06:46:22 20° SW 06:52:35 10° S visible
27 Jan 10.2 02:21:26 29° ESE 02:21:26 29° ESE 02:25:14 10° E visible
27 Jan 9.0 04:19:39 52° SW 04:20:19 53° SSW 04:29:14 10° SE visible
27 Jan 10.2 06:17:51 12° W 06:23:35 21° SW 06:30:04 10° S visible
28 Jan 10.6 01:59:56 21° E 01:59:56 21° E 02:02:20 10° E visible
28 Jan 9.1 03:58:08 54° SSW 03:58:08 54° SSW 04:06:25 10° SE visible
28 Jan 10.1 05:56:21 16° W 06:00:48 23° SW 06:07:32 10° S visible
29 Jan 10.9 01:38:28 14° E 01:38:28 14° E 01:39:26 10° E visible
29 Jan 9.3 03:36:41 48° SSE 03:36:41 48° SSE 03:43:36 10° SE visible
29 Jan 9.9 05:34:54 20° WSW 05:38:00 24° SW 05:44:58 10° S visible
